Theta_e
343 338 341 349 355 357 356 353 350 354 351 349 347 348 349 350 352 352 343 337 333 337 336 337 338 339 339 338 337 337 339 338 337 332 337 336 336 336 335 331 336 334 328 337 332 333 334 336 338
344 347 350 352 358 356 356 352 353 352 351 350 352 352 352 352 349 345 340 334 337 337 337 338 339 340 340 339 338 339 335 332 332 337 339 332 337 336 337 337 326 339 336 338 332 332 332 333 340
348 351 351 354 352 355 357 355 355 351 352 352 351 351 351 350 345 342 338 335 338 338 339 339 340 340 339 340 338 334 332 332 336 339 331 336 340 333 336 341 339 334 338 336 332 330 334 339 343
351 353 351 350 356 352 354 354 353 353 351 351 350 350 350 349 347 343 337 335 339 340 340 341 341 339 337 332 333 337 338 339 340 339 331 341 334 332 338 337 332 337 333 332 328 335 336 339 343
352 352 351 352 351 350 350 349 350 353 352 351 350 351 350 350 350 344 344 340 340 341 341 341 336 335 335 342 342 339 339 339 340 335 331 334 337 340 341 337 338 336 333 331 330 332 336 343 344
353 352 354 358 352 352 350 348 353 352 352 351 351 350 349 350 348 348 344 342 341 340 339 333 338 339 342 340 341 341 339 339 339 338 338 336 336 336 338 339 338 338 336 334 333 330 341 343 345
352 352 357 355 352 358 349 346 353 353 352 351 350 351 348 347 346 343 341 339 338 333 331 336 340 342 339 340 343 339 339 339 338 337 335 336 337 337 335 339 338 337 337 335 331 330 336 343 344
352 350 353 355 356 357 348 353 352 352 351 350 350 350 348 346 347 345 343 340 334 330 336 338 338 343 342 343 339 338 339 338 336 335 339 341 337 335 334 337 338 337 334 332 330 330 336 341 342
351 355 354 354 357 353 350 351 350 352 352 350 351 349 346 347 347 347 347 340 332 333 334 337 338 334 338 338 339 338 338 338 335 342 341 339 338 335 334 335 337 336 336 334 331 334 338 342 343
349 352 352 350 350 352 346 349 352 353 351 350 350 349 347 347 347 347 346 338 333 332 337 339 334 336 338 335 337 338 336 334 338 346 344 341 338 335 335 334 337 337 336 331 335 336 341 341 341
340 346 345 350 350 351 346 347 351 352 353 351 349 349 348 348 347 346 344 339 334 332 336 332 335 335 335 337 337 339 341 342 343 346 345 341 339 338 337 336 337 338 335 335 339 340 341 341 341
337 338 341 343 352 350 344 347 349 351 351 351 345 347 348 346 346 345 344 344 339 334 334 331 335 336 337 340 337 338 338 341 345 347 343 344 343 342 344 342 337 339 341 337 336 335 336 339 339
335 336 337 340 346 350 349 348 349 349 352 351 348 348 348 348 345 344 343 343 340 341 338 338 337 339 339 343 345 344 342 342 345 345 345 344 345 344 343 343 342 342 335 337 337 339 340 340 343
335 335 336 336 351 352 354 351 343 346 350 350 349 348 349 347 344 345 344 343 342 345 343 342 341 342 343 346 345 347 343 342 344 344 343 345 346 345 344 342 342 341 341 337 340 339 342 341 342
335 332 327 328 349 355 352 349 346 349 351 350 348 348 349 346 345 344 344 342 343 345 345 344 346 346 347 348 348 346 345 346 345 346 344 347 346 344 343 345 344 342 342 341 340 341 340 343 341
330 324 325 325 329 353 350 356 351 351 349 351 349 348 348 345 344 344 345 341 344 345 346 345 346 347 348 348 348 346 346 347 347 347 344 343 345 346 342 344 343 340 340 338 342 342 342 341 342
324 329 328 324 325 343 348 356 351 352 352 351 349 349 347 347 345 344 344 342 344 345 346 344 347 347 345 347 349 348 347 345 346 347 346 343 345 346 343 345 342 343 344 341 341 343 341 341 343
329 329 324 323 324 326 354 356 351 350 352 352 350 349 348 347 345 345 343 343 342 345 346 345 345 342 342 348 348 348 347 347 348 345 347 344 343 343 345 345 344 344 345 343 341 341 341 342 342
326 326 326 326 326 323 335 354 349 345 349 350 350 349 349 348 347 346 344 341 340 346 346 345 345 343 342 347 347 347 347 348 347 348 349 344 344 347 346 343 345 347 345 345 341 343 344 343 342
326 326 325 324 326 324 349 356 351 346 342 348 345 348 349 348 349 347 344 340 340 344 346 346 344 340 337 342 345 346 345 348 349 348 349 348 345 348 346 343 343 346 345 341 343 340 342 341 342
326 325 324 324 326 324 350 356 355 349 344 343 343 346 348 348 349 348 345 341 340 341 345 344 343 342 339 335 344 348 347 349 348 349 349 345 344 343 348 344 345 345 342 344 343 341 343 339 340
326 325 325 326 323 322 322 329 352 351 348 348 346 346 347 348 348 348 346 343 342 341 342 343 343 342 338 340 342 346 345 346 348 350 350 347 348 344 346 347 346 346 345 339 342 341 343 339 340
325 325 323 324 321 321 322 320 325 345 345 344 346 349 348 349 349 348 347 346 344 343 341 343 342 341 339 343 338 343 345 345 346 349 349 349 346 343 345 344 344 346 346 339 340 344 344 341 340
324 323 321 318 318 320 320 321 328 347 346 345 345 348 348 350 350 349 348 347 345 343 342 343 342 341 340 342 343 339 343 344 346 348 347 348 345 344 348 347 346 343 347 338 341 344 343 342 346
322 317 319 321 320 320 319 320 320 342 342 344 345 348 347 348 349 349 348 346 345 344 343 343 342 341 341 339 342 339 340 344 346 347 348 349 349 347 344 347 350 341 341 344 341 342 345 345 344
317 317 318 323 322 321 320 322 322 325 337 343 344 346 344 345 347 348 348 348 346 346 345 344 343 342 342 340 338 338 338 343 345 349 348 345 348 346 345 340 344 340 339 345 343 344 342 343 344
316 319 317 319 318 320 321 322 323 323 323 341 343 340 339 338 341 345 348 348 348 347 347 345 345 344 343 343 339 336 333 340 345 349 349 345 347 347 347 346 342 340 337 334 342 342 340 341 343
313 314 318 315 323 323 322 324 323 324 330 333 346 344 339 340 339 343 348 348 347 348 348 347 346 346 345 344 343 338 332 335 344 347 348 346 348 348 344 348 348 347 346 342 337 337 339 340 338
313 312 311 313 316 320 321 321 321 326 327 329 330 332 343 340 340 346 348 349 348 348 348 347 347 346 345 345 344 343 335 330 338 344 347 349 349 351 347 349 349 349 347 346 340 338 341 340 344
314 313 311 313 316 318 319 322 326 326 325 328 330 332 335 344 343 345 349 350 349 348 348 348 347 347 346 346 345 345 343 331 330 339 346 347 349 351 350 349 348 350 349 347 345 333 338 343 344
Wind_Speed
4 10 12 5 2 1 1 5 4 6 8 17 28 9 7 5 2 3 24 35 33 30 27 25 20 18 17 16 15 13 12 12 11 10 11 10 12 11 11 11 11 11 12 12 12 13 15 15 15
9 11 6 3 1 2 3 2 8 11 11 27 16 18 6 2 6 24 39 34 32 30 27 23 19 17 16 16 14 12 12 11 11 11 11 11 12 11 13 12 12 13 12 12 11 13 15 17 16
9 3 4 1 2 3 2 5 8 16 25 15 8 12 5 5 21 40 36 37 32 28 24 21 18 18 18 16 14 12 12 11 12 12 11 13 12 10 13 12 12 13 13 13 14 16 17 19 18
9 4 4 3 2 4 1 8 5 16 10 9 22 11 10 12 26 30 37 36 31 27 24 21 20 19 17 15 14 14 14 14 14 14 13 12 11 12 13 13 13 14 14 13 16 17 18 20 18
5 1 3 1 4 2 2 14 14 11 5 17 10 10 9 15 19 34 32 33 30 28 24 22 19 18 17 16 15 14 15 15 15 14 14 12 12 12 12 12 14 14 16 17 18 17 20 20 17
2 1 0 3 3 9 9 11 9 9 18 17 18 18 7 21 29 30 31 31 29 28 25 23 20 18 17 16 16 15 15 15 15 15 14 13 12 12 12 13 14 15 16 17 18 18 20 18 17
2 1 1 3 5 2 9 15 10 10 15 12 22 8 24 31 30 29 31 29 26 25 24 23 21 18 17 17 17 16 16 16 16 15 14 12 13 13 13 14 15 17 16 17 18 19 20 18 15
5 2 2 1 4 5 4 2 10 9 3 22 27 8 24 39 34 31 27 24 23 23 23 23 21 19 18 18 18 18 17 18 16 16 16 16 14 13 14 15 16 17 17 18 18 20 20 16 13
6 3 2 0 1 2 7 5 8 7 13 13 7 28 43 44 35 34 32 27 28 24 22 22 21 20 19 18 18 18 19 19 19 18 18 18 16 15 15 14 15 16 17 17 18 20 19 14 14
10 4 6 8 10 5 12 9 11 5 16 11 8 31 42 42 36 40 33 30 29 26 23 21 21 20 20 19 20 20 20 19 19 15 18 18 17 16 15 15 15 15 16 19 21 20 16 13 10
7 7 9 12 5 14 14 11 18 8 10 14 34 36 41 37 41 41 33 28 27 24 22 20 22 21 21 21 22 23 21 18 15 15 15 15 16 17 15 14 14 16 17 18 19 18 14 11 7
4 14 18 20 14 17 11 10 5 12 5 20 45 49 46 37 39 41 33 29 27 26 23 20 22 22 23 23 22 20 18 14 17 14 13 13 13 12 10 11 11 12 13 13 14 13 12 13 7
9 19 23 25 22 25 19 5 4 11 10 21 32 36 42 35 36 37 30 28 27 27 27 21 26 25 25 20 20 19 15 19 13 11 11 11 7 7 7 5 6 6 8 13 15 16 14 15 13
12 16 19 16 27 27 20 11 3 7 16 31 32 34 35 28 37 37 33 31 29 27 28 23 24 21 23 17 18 17 17 16 10 10 7 11 9 8 7 7 6 6 9 11 12 20 15 14 10
18 7 9 5 21 14 25 6 7 11 13 31 34 33 30 34 33 41 35 31 31 27 27 25 22 19 19 14 14 16 15 12 12 11 9 10 12 10 8 6 6 11 11 12 16 14 16 14 11
4 4 4 6 4 21 10 9 10 17 26 33 34 32 26 35 29 37 37 32 33 33 31 27 25 23 18 15 17 17 15 14 13 10 8 10 9 10 9 7 10 8 8 14 14 12 12 16 14
7 1 4 9 7 19 7 6 10 9 24 34 36 35 32 31 33 36 41 34 33 29 35 32 28 27 24 19 17 17 12 14 14 9 10 9 9 11 9 12 9 11 12 11 12 9 13 10 13
3 3 4 5 6 2 5 9 13 29 17 20 29 17 29 31 37 29 40 38 33 32 35 31 30 26 26 23 21 18 16 16 14 10 8 10 12 10 12 11 13 12 10 10 12 12 14 10 13
3 2 8 14 12 5 7 18 22 18 25 24 26 34 36 31 33 27 39 39 35 35 35 30 27 24 30 30 25 21 20 18 15 12 8 9 11 11 15 12 11 12 9 12 16 14 13 15 11
6 5 10 11 5 3 9 14 22 20 24 33 37 43 41 39 33 30 37 45 43 39 36 33 28 21 25 33 29 23 21 18 12 14 9 8 10 13 13 15 13 12 15 15 16 17 11 16 12
6 5 8 10 10 0 14 6 12 12 14 22 19 19 39 46 39 38 40 48 45 43 40 35 31 26 26 29 33 24 22 19 18 18 14 11 11 11 12 14 11 11 10 13 16 13 14 12 11
6 8 10 8 3 2 2 4 10 15 13 16 21 20 30 38 46 39 46 51 51 48 41 37 34 30 27 26 37 32 28 28 24 20 19 13 12 11 11 12 10 11 10 14 15 14 12 12 14
11 12 8 2 3 5 3 4 2 16 12 18 25 26 35 42 39 41 42 48 51 48 45 41 36 32 29 29 32 37 31 29 24 20 18 14 13 12 11 9 11 15 11 14 18 16 12 14 11
11 4 5 5 4 2 3 4 2 15 24 15 19 29 37 45 47 42 37 45 51 51 48 44 39 35 33 32 30 36 33 31 27 23 21 18 15 13 12 10 7 15 12 18 19 16 13 11 7
3 6 3 4 2 6 2 4 8 18 13 20 25 39 37 40 45 49 45 42 51 55 52 47 42 39 36 36 34 33 35 33 30 26 25 22 19 16 15 15 12 12 13 14 16 15 16 13 11
4 7 6 6 3 2 5 4 6 11 18 36 41 45 40 40 46 49 53 41 51 53 54 50 46 42 39 38 38 35 37 36 33 27 28 24 24 17 12 13 13 12 12 13 14 15 17 16 14
7 1 6 4 3 4 3 7 9 11 6 17 30 32 40 44 36 46 45 48 49 53 54 53 49 45 42 39 38 39 38 38 36 31 24 27 25 17 16 14 14 12 9 11 12 14 16 19 19
7 4 4 3 2 2 4 2 6 9 13 8 5 23 38 46 31 39 46 50 49 52 52 52 50 49 45 42 40 40 40 40 39 35 28 29 24 21 20 19 17 16 13 11 12 13 14 17 18
7 6 5 0 4 5 3 5 1 4 6 3 8 20 45 42 41 44 46 51 54 48 50 53 53 52 49 45 42 40 43 42 42 40 34 28 26 25 22 18 20 21 18 14 14 14 13 14 15
4 6 5 4 7 1 5 4 3 7 6 15 20 32 19 45 38 50 49 51 54 57 52 51 54 53 52 47 44 41 43 44 42 44 41 34 32 28 27 25 21 25 23 17 15 17 18 16 16
Wind_Direction
146 163 167 151 207 217 219 259 305 294 139 169 163 165 164 102 172 189 148 158 161 155 155 152 151 147 144 148 148 136 129 121 119 113 115 113 112 109 99 95 105 108 121 126 130 129 123 124 121
168 170 182 231 143 100 276 250 266 257 124 125 121 112 85 76 128 137 148 158 160 155 156 156 153 147 143 145 147 139 131 127 122 116 117 115 113 105 105 95 105 111 113 126 124 130 128 124 121
167 176 259 202 82 162 208 223 260 132 135 123 105 80 71 114 146 142 155 158 160 160 158 157 156 149 146 143 143 144 136 129 124 122 115 114 110 110 114 105 108 115 109 114 117 123 128 128 120
175 236 7 37 350 301 23 237 232 125 89 84 111 84 78 141 138 156 153 160 162 159 159 156 154 148 148 146 144 141 135 134 130 124 116 111 110 102 106 101 108 110 106 103 115 122 129 128 119
163 34 61 98 279 316 323 307 286 289 128 129 125 111 95 159 159 151 154 163 162 159 157 154 154 148 146 140 141 139 136 134 128 123 120 116 113 113 108 109 111 110 108 104 108 124 128 120 116
161 199 198 5 7 346 326 316 285 213 124 113 105 109 107 154 151 155 159 160 162 157 156 152 149 149 148 147 140 137 135 132 127 122 118 114 115 118 114 111 108 108 109 108 111 125 129 119 115
237 210 282 175 124 26 309 324 289 154 137 129 138 107 138 148 153 151 150 154 158 158 158 153 149 151 148 141 140 133 133 131 125 117 111 111 109 117 123 120 112 107 107 109 118 132 137 128 122
214 281 260 253 188 209 211 274 346 168 40 132 135 155 162 156 159 155 150 157 163 163 158 153 150 147 150 144 135 131 131 129 125 119 108 99 98 118 126 120 115 113 113 117 120 131 143 134 130
209 262 239 308 210 237 154 83 15 302 178 160 201 164 154 155 166 164 159 162 164 164 162 156 154 152 148 143 134 132 131 133 130 117 106 98 97 108 123 124 119 115 117 120 125 133 143 140 138
199 200 228 189 161 198 164 139 114 228 193 184 131 151 154 157 170 167 164 161 166 164 163 160 155 150 146 139 135 134 135 136 130 118 115 100 100 103 114 127 129 126 122 128 131 141 145 146 139
229 233 235 203 167 146 141 126 142 173 232 205 156 155 162 160 162 170 166 163 163 166 165 163 153 144 141 140 136 133 132 120 128 120 118 112 103 109 118 125 133 137 128 127 139 141 150 145 146
276 265 250 251 186 154 151 135 183 180 166 181 162 160 165 161 167 174 168 164 162 163 160 153 151 139 139 135 137 141 136 126 122 128 122 118 118 124 121 120 122 131 126 140 152 156 154 135 131
239 256 262 263 213 147 141 202 248 206 129 172 173 165 167 169 173 178 172 166 164 157 154 148 145 143 140 146 140 137 131 133 135 133 131 129 131 166 148 141 129 152 142 133 140 136 137 154 106
251 260 268 281 141 157 160 164 73 200 137 166 173 175 173 176 175 182 176 173 170 167 161 156 154 146 150 151 153 148 135 138 126 131 137 149 146 142 124 112 117 135 135 146 144 131 124 139 113
252 277 292 270 149 154 130 90 274 226 167 167 174 175 182 175 170 179 179 179 174 178 171 170 167 164 167 178 175 158 155 159 149 151 144 147 156 155 132 116 129 127 143 144 133 134 128 123 133
5 70 338 299 105 165 155 186 231 191 182 168 178 178 186 185 171 189 181 182 181 182 181 175 167 175 175 178 174 169 162 165 168 163 166 171 168 157 146 133 131 125 126 140 137 136 133 136 137
15 255 313 313 283 161 227 132 178 155 164 165 176 179 180 188 188 181 184 180 183 191 183 177 178 182 182 179 160 164 178 183 177 181 193 180 166 162 155 151 148 127 120 142 148 139 147 143 150
269 319 318 246 313 24 116 133 149 151 169 166 168 176 184 192 196 193 185 184 188 188 187 187 188 193 189 186 174 175 170 180 177 161 148 165 164 166 166 165 164 140 141 142 157 160 161 162 153
231 246 288 288 281 255 193 157 180 171 163 168 175 173 186 194 203 201 198 191 191 190 192 194 193 201 198 188 185 181 178 185 183 181 181 159 157 158 167 171 161 149 143 147 153 165 177 164 175
266 251 273 285 256 272 153 192 176 187 191 177 194 179 184 188 196 191 198 194 196 192 194 194 197 207 201 194 192 190 180 182 197 185 190 191 168 157 169 182 163 150 162 166 173 162 163 157 174
249 214 252 250 303 358 108 133 185 213 206 213 244 199 185 191 199 191 201 194 196 198 198 203 207 215 203 201 193 190 186 194 192 198 197 185 172 170 164 177 173 161 158 172 170 172 166 160 167
271 229 245 269 44 265 91 195 204 203 209 237 235 223 207 198 195 196 194 198 199 200 203 208 212 217 212 199 195 196 194 197 200 195 193 185 184 179 177 179 175 168 163 170 173 175 180 179 165
240 258 242 236 83 348 55 95 266 179 219 212 217 203 202 201 196 200 195 202 205 202 204 208 215 217 217 205 203 203 200 198 203 200 193 194 188 180 177 182 185 181 184 175 174 182 182 172 191
240 223 21 56 99 354 150 127 213 177 211 217 219 211 196 195 197 200 202 204 206 205 204 208 212 217 218 213 210 206 202 199 203 202 203 199 193 193 193 187 179 193 191 180 186 193 182 183 194
98 72 12 347 0 216 143 62 227 211 195 201 206 216 207 193 195 196 197 200 204 204 206 209 212 214 218 218 215 211 208 200 201 206 209 206 202 207 203 203 203 204 201 192 191 195 196 198 197
280 148 153 192 203 263 334 225 258 210 202 203 203 212 211 209 201 197 197 199 205 208 208 210 212 215 219 222 221 216 210 204 203 210 216 217 214 221 215 213 204 204 198 200 205 209 205 208 207
303 113 181 121 141 81 243 298 324 17 328 205 201 203 210 215 199 207 204 198 208 212 212 212 214 216 220 223 225 221 215 210 207 209 217 212 219 221 218 195 186 194 201 209 208 199 210 214 213
93 283 343 18 180 191 277 232 238 40 31 16 272 239 231 220 212 208 199 201 207 215 216 216 219 219 222 225 228 227 221 214 209 210 213 213 213 214 210 213 215 213 214 218 221 216 207 214 216
351 2 359 183 148 151 167 260 205 76 98 191 280 347 237 223 210 202 200 202 201 212 217 220 219 220 222 225 228 230 227 219 215 213 213 215 210 215 215 217 231 229 225 230 230 223 218 212 208
165 62 73 53 311 239 140 271 89 86 13 16 1 349 300 219 212 203 198 198 206 210 215 221 222 222 225 226 227 230 230 226 218 216 214 214 216 215 222 227 238 228 226 232 236 228 223 217 213